CZ-4 DEB, 26168

Orbit data source: Space-Track

CZ-4 DEB, 26168 is space debris in SSO originally from a launch on Thu, 14 Oct 1999 UTC launched from the Taiyaun Space Center, China (TSC). Debris objects in space refer to the collection of defunct objects orbiting the Earth. Examples of debris include non-operational satellites, rocket bodies, and fragments generated from explosions, collisions, or faulty payload assembly.

Loading next visibility...
Identifier
26168, 1999-057BE
Orbit
SSO
Country
Flag of CNCN / PRC
Related business
Manufacturer
Unknown
Mission
Spacecraft
Bus & Motor
Unknown
Mass
Unknown
Launch date (UTC)
1999-10-14 (26 years ago)
Launch vehicle
Unknown
Launch site
Taiyaun Space Center, China (TSC)
Object type
Payload
Rocket body
Debris
Shape & HBR
Unknown shape, 0.1 m
Radar Cross Section
Medium (>0.1 m² and <1 m²)

Expand to show TLE details & history
Last TLE update: 21 hours ago

TLE from 21 hours ago
0 CZ-4 DEB
1 26168U 99057BE  25300.04747806  .00000394  00000-0  14496-3 0  9992
2 26168  98.8269 335.1806 0101191 270.9305 118.0849 14.35642411340405
Epoch: 2025-10-27T01:08Z
TLE epoch observation values (Epoch: 2025-10-27T01:08:22.104Z)
Latitude
29.69126°
Longitude
-82.61929°
Altitude
811.284 km
Speed
7.432 km/s
True Right ascension
22h 00m 30s
True Declination
29° 32' 41"
Sunlit
Object was in full shadow at epoch
Visualization orbit readout
Latitude
Unknown
Longitude
Unknown
Altitude
Unknown
Speed
Unknown
Apparent Right ascension
Unknown
Apparent Declination
Unknown
Sunlit
N/A
Visualization observer readout
Local Sidereal Time
17:42:59
Azimuth
Unknown
Elevation
Unknown
Doppler factor
Unknown
Orbital elements
Apogee altitude
842.409 km
Perigee altitude
697.742 km
Semi-major axis
7,148.212 km
Eccentricity
0.01012
Inclination
98.8269°
RAAN
335.1806°
Arg. of periapsis
270.9305°
True anomaly
119.10182°
Mean anomaly
118.0849°
Eccentric anomaly
118.59397°
Mean motion
3.59126 °/min
Orbital period
100.24 mins
BSTAR
0.00014496
Loading maneuver chart data...
Computing Atmospheric mass density...
Loading historical data...
Loading historical data...
Loading historical data...
Loading historical data...
Loading historical data...
Loading historical data...
Loading historical data...

Documentation

Showing up to 5 results
|